Chattanooga, TN

5:53 PM EDT on April 27, 2017 (GMT -0400)
Lovell

Weather History for KCHA - October, 2013

Change the Weather History Date:

Tuesday, October 15, 2013

  Actual Average Record
Temperature  
Mean Temperature 67 °F 62 °F  
Max Temperature 72 °F 73 °F 85 °F (1935)
Min Temperature 62 °F 50 °F 34 °F (1987)
Degree Days  
Heating Degree Days 0 5  
Month to date heating degree days 0 48  
Since 1 July heating degree days 0 63  
Cooling Degree Days 2 1  
Month to date cooling degree days 76 36  
Year to date cooling degree days 1746 1725  
Growing Degree Days 17 (Base 50)    
Moisture  
Dew Point 58 °F    
Average Humidity 74    
Maximum Humidity 90    
Minimum Humidity 57    
Precipitation  
Precipitation 0.00 in 0.10 in 1.56 in (2012)
Month to date precipitation 0.08 1.60  
Year to date precipitation 56.39 40.90  
Snow  
Snow 0.00 in 0.00 in - ()
Month to date snowfall 0.0 0.0  
Since 1 July snowfall 0.0 0.0  
Since 1 September snowfall 0.0 0.0  
Snow Depth 0.00 in    
Sea Level Pressure  
Sea Level Pressure 30.11 in    
Wind  
Wind Speed 4 mph (South)    
Max Wind Speed 12 mph    
Max Gust Speed 16 mph    
Visibility 10 miles    
Events      
T = Trace of Precipitation, MM = Missing Value Source: NWS Daily Summary

Daily Weather History Graph

Daily Weather History Graph

Search for Another Location

Airport or City:

Trip Planner

Search our weather history database for the weather conditions in past years. The results will help you decide how hot, cold, wet, or windy it might be!

Date:

Astronomy

Oct. 15, 2013 Rise Set
Actual Time 7:46 AM EDT 7:05 PM EDT
Civil Twilight 7:21 AM EDT 7:30 PM EDT
Nautical Twilight 6:52 AM EDT 8:00 PM EDT
Astronomical Twilight 6:22 AM EDT 8:29 PM EDT
Moon 5:04 PM EDT (10/15) 4:16 AM EDT (10/15)
Length of Visible Light 12h 09m
Length of Day
11h 18m
Waxing Gibbous, 87% of the Moon is Illuminated
Oct 15
Waxing Gibbous
Oct 18
Full
Oct 26
Last Quarter
Nov 3
New
Nov 10
First Quarter

Hourly Weather History & Observations

Time (EDT) Temp. Dew Point Humidity Pressure Visibility Wind Dir Wind Speed Gust Speed Precip Events Conditions
12:53 AM 69.1 °F 60.1 °F 73% 30.15 in 10.0 mi SSE 4.6 mph - N/A   Overcast
1:53 AM 66.9 °F 60.1 °F 79% 30.13 in 10.0 mi WSW 3.5 mph - N/A   Overcast
2:53 AM 66.0 °F 59.0 °F 78% 30.14 in 10.0 mi Calm Calm - N/A   Scattered Clouds
3:53 AM 64.0 °F 59.0 °F 84% 30.12 in 10.0 mi Calm Calm - N/A   Clear
4:53 AM 64.0 °F 60.1 °F 87% 30.12 in 10.0 mi Calm Calm - N/A   Overcast
5:53 AM 64.9 °F 60.1 °F 84% 30.14 in 10.0 mi Calm Calm - N/A   Mostly Cloudy
6:53 AM 64.0 °F 59.0 °F 84% 30.12 in 10.0 mi SSE 3.5 mph - N/A   Mostly Cloudy
7:48 AM 62.6 °F 59.0 °F 88% 30.15 in 10.0 mi Calm Calm - N/A   Mostly Cloudy
7:53 AM 63.0 °F 59.0 °F 87% 30.14 in 10.0 mi Calm Calm - N/A   Mostly Cloudy
8:53 AM 64.9 °F 59.0 °F 81% 30.14 in 10.0 mi Calm Calm - N/A   Mostly Cloudy
9:16 AM 66.2 °F 59.0 °F 78% 30.16 in 10.0 mi SSW 5.8 mph - N/A   Mostly Cloudy
9:53 AM 66.9 °F 57.9 °F 73% 30.14 in 10.0 mi South 5.8 mph - N/A   Mostly Cloudy
10:51 AM 69.8 °F 57.2 °F 64% 30.16 in 10.0 mi South 8.1 mph - N/A   Mostly Cloudy
10:53 AM 69.1 °F 57.0 °F 65% 30.14 in 10.0 mi South 8.1 mph - N/A   Mostly Cloudy
11:32 AM 71.6 °F 55.4 °F 57% 30.14 in 10.0 mi South 9.2 mph - N/A   Mostly Cloudy
11:53 AM 71.1 °F 55.9 °F 59% 30.12 in 10.0 mi South 9.2 mph - N/A   Mostly Cloudy
12:53 PM 70.0 °F 55.9 °F 61% 30.11 in 10.0 mi SSE 5.8 mph - N/A   Mostly Cloudy
1:53 PM 72.0 °F 55.9 °F 57% 30.09 in 10.0 mi South 9.2 mph - N/A   Mostly Cloudy
2:53 PM 72.0 °F 55.9 °F 57% 30.07 in 10.0 mi South 8.1 mph - N/A   Overcast
3:53 PM 70.0 °F 57.0 °F 63% 30.06 in 10.0 mi SSW 4.6 mph - N/A   Overcast
4:53 PM 70.0 °F 57.0 °F 63% 30.05 in 10.0 mi South 9.2 mph - N/A   Overcast
5:53 PM 69.1 °F 57.0 °F 65% 30.06 in 10.0 mi SSW 6.9 mph - N/A   Mostly Cloudy
6:53 PM 69.1 °F 57.9 °F 68% 30.05 in 10.0 mi SSW 8.1 mph - N/A   Overcast
7:53 PM 68.0 °F 57.9 °F 70% 30.06 in 10.0 mi South 3.5 mph - N/A   Overcast
8:53 PM 66.9 °F 57.9 °F 73% 30.06 in 10.0 mi Calm Calm - N/A   Overcast
9:53 PM 66.9 °F 57.9 °F 73% 30.06 in 10.0 mi South 3.5 mph - N/A   Overcast
10:53 PM 64.9 °F 57.9 °F 78% 30.07 in 10.0 mi SSW 4.6 mph - N/A   Mostly Cloudy
11:53 PM 64.9 °F 57.9 °F 78% 30.06 in 10.0 mi South 3.5 mph - N/A   Mostly Cloudy